IRIDIUM 33 DEB, 34508

Orbit data source: Space-Track

IRIDIUM 33 DEB, 34508 is space debris in LEO originally from a launch on Sun, 14 Sep 1997 UTC launched from the Tyuratam Missile And Space Complex (TTMTR). The debris from Iridium 33, an American commercial communications satellite, has been tracked extensively since its accidental collision with the defunct Russian satellite Cosmos 2251 in 2009. This event, occurring at high speed in low Earth orbit (LEO), generated thousands of pieces of space debris, significantly increasing the risk of further collisions. The Iridium 33 debris cloud has impacted space traffic management and orbital debris mitigation strategies, making it a subject of ongoing study in space situational awareness.

Loading next visibility...
Identifier
34508, 1997-051GZ
Orbit
LEO
Country
Flag of USUS
Related business
Manufacturer
Unknown
Mission
Spacecraft
Bus & Motor
Unknown
Mass
Unknown
Launch date (UTC)
1997-09-14 (28 years ago)
Launch vehicle
Unknown
Launch site
Tyuratam Missile And Space Complex (TTMTR)
Object type
Payload
Rocket body
Debris
Shape & HBR
Unknown shape, 0.1 m
Radar Cross Section
Small (<0.1 m²)

Expand to show TLE details & history
Last TLE update: 20 hours ago

TLE from 20 hours ago
0 IRIDIUM 33 DEB
1 34508U 97051GZ  25353.28757455  .00002599  00000-0  82341-3 0  9999
2 34508  86.3709  99.8676 0066492 151.9590 208.5216 14.38473954874031
Epoch: 2025-12-19T06:54Z
TLE epoch observation values (Epoch: 2025-12-19T06:54:06.441Z)
Latitude
-0.00007°
Longitude
-91.79013°
Altitude
808.406 km
Speed
7.427 km/s
True Right ascension
06h 39m 28s
True Declination
0° 00' 00"
Sunlit
Object was in full shadow at epoch
Visualization orbit readout
Latitude
Unknown
Longitude
Unknown
Altitude
Unknown
Speed
Unknown
Apparent Right ascension
Unknown
Apparent Declination
Unknown
Sunlit
N/A
Visualization observer readout
Local Sidereal Time
01:26:49
Azimuth
Unknown
Elevation
Unknown
Doppler factor
Unknown
Orbital elements
Apogee altitude
807.97 km
Perigee altitude
713.038 km
Semi-major axis
7,138.641 km
Eccentricity
0.00665
Inclination
86.3709°
RAAN
99.8676°
Arg. of periapsis
151.959°
True anomaly
208.16042°
Mean anomaly
208.5216°
Eccentric anomaly
208.34075°
Mean motion
3.59849 °/min
Orbital period
100.04 mins
BSTAR
0.00082341
Loading maneuver chart data...
Computing Atmospheric mass density...
Loading historical data...
Loading historical data...
Loading historical data...
Loading historical data...
Loading historical data...
Loading historical data...
Loading historical data...

Documentation

Showing up to 5 results
|